Location: Asheville, NC
(35.6000°N, 82.5500°W)
Time: 23:58:49

Vanguard 1 Rocket - Pass Details

Date: 16 March 2018
Orbit: 655 x 4222 km, 34.3° (Epoch: 19 March)

Event Time Altitude Azimuth Distance (km) Brightness Sun altitude
Rises 02:07:53 0° 282° (WNW) 6,366 11.7 -55.5°
Reaches altitude 10° 02:12:10 10° 273° (W) 5,798 11.4 -55.3°
Enters shadow 02:12:33 11° 272° (W) 5,755 11.3 -55.3°
Maximum altitude 02:28:21 33° 218° (SW) 5,287 - -54.2°
Drops below altitude 10° 02:49:27 10° 164° (SSE) 7,372 - -52.4°
Exits shadow 02:53:59 - 158° (SSE) 7,946 11.9 -51.9°
Sets 02:56:10 0° 156° (SSE) 8,225 12.1 -51.7°
